sat.trackr.live / text

‹ back to catalog

2024-153B

NORAD 60746 · 2024-153B

PAYLOAD ACTIVE UNKNOWN

§ Identity

Operator
Country
PRC
Launch date
2024-08-29
Launch site
YSLA
Launch vehicle
Mass (kg)
RCS (m²)

External: N2YO · Heavens-Above · Gunter

§ Orbital elements

Epoch: 2026-05-25T04:57:19.963584Z

Period
93.95 min
Inclination
97.6748°
Eccentricity
0.0009119
Mean motion
15.32659497 rev/d
Perigee alt
461.6 km
Apogee alt
474.1 km
Semi-major
6,846.0 km
B*
4.2338e-4
RAAN
283.8062°
Arg perigee
235.7391°
Mean anomaly
124.2987°
Rev number
9,643

§ Raw data

2024-153B1 60746U 24153B   26145.20648106  .00013295  00000+0  42338-3 0  99952 60746  97.6748 283.8062 0009119 235.7391 124.2987 15.32659497 96431

JSON: /api/v1/satellites/60746 · /tle

For live sub-satellite position, see the globe view (requires WebGL).

§ Visibility from observer

Set your observer location to see the next 7 days of passes ≥ 10°. The values pass through the URL so the page stays shareable.

No JS? Fill the form by hand. The geolocation button needs JavaScript.